Skip Navigation Links
NOAA logo - Click to go to the NOAA homepage
NOAA's National Weather Service
Alaska Aviation Weather Unit
  NWS logo - Click to go to the NWS homepage
Left Navbar Graphic     22 AKDT = 06 GMT

   
NOAA is celebrating 200 years of science, service, and stewardship. Visit the NOAA 200th celebration Web site to learn more.
USA.gov is the U.S. Government's official Web portal to all Federal, state and local government Web resources and services.
Facebook
NWS on Facebook

Important Change Regarding the AAWU Web Presence

 

Over the last several months, the AAWU has been working to navigate its webpages to a nationally supported server. Security, as well as other needs, have necessitated the change.  In the process, we have made an effort to enhance the functionality of our website, as well as some of our products. As of June 20, 2017, aawu.arh.noaa.gov will be discontinued. The new AAWU web address is weather.gov/aawu. It is now live and will run in-parallel with the old site until it is discontinued. Please send any feedback or questions regarding the new webpages to nws.ar.aawu.webauthors@noaa.gov.  Thank you for your patience during this time of transition.
AAWU Home :: Display TAF Add Bookmark
METAR PAFE 280056Z AUTO 27009KT 10SM 12/04 A3023 RMK AO2 SLP249
     T01170044 $=

METAR PAFE 280156Z AUTO 27004KT 10SM 13/04 A3022 RMK AO2 SLP245
     T01280039 $=

METAR PAFE 280256Z AUTO 27004KT 10SM 13/02 A3021 RMK AO2 SLP242
     T01280017 56010 $=

METAR PAFE 280356Z AUTO 00000KT 10SM 13/02 A3019 RMK AO2 SLP236
     T01330022 $=

METAR PAFE 280456Z AUTO 00000KT 10SM 11/05 A3018 RMK AO2 SLP234
    T01060050 $=

METAR PAFE 280556Z AUTO 06005KT 10SM 07/04 A3019 RMK AO2 SLP235
    T00720044 10133 20072 401560011 55007 $=


NOAA's National Weather Service
Alaska Aviation Weather Unit
6930 Sand Lake Road
Anchorage, AK 99502-1845
Disclaimer
Credits
Glossary
Privacy Policy
About Us
Career Opportunities
Contact AAWU Internet Services Site last modified: April, 17th 2012